Tracking 28790 objects as of 18-Apr-2024
HD Live streaming from Space Station
objects crossing your sky now

COSMOS 2251 DEB

Track COSMOS 2251 DEB now!
10-day predictions


NORAD ID: 34122
Int'l Code: 1993-036KT
Perigee: 652.5 km
Apogee: 796.8 km
Inclination: 74.0 °
Period: 99.1 minutes
Semi major axis: 7095 km
RCS: 0.0293 m2 (small)
Launch date: June 16, 1993
Source: Commonwealth of Independent States (former USSR) (CIS)
Launch site: PLESETSK MISSILE AND SPACE COMPLEX (PKMTR)

Note: This is SATELLITE DEBRIS
Your satellite tracking list
Your tracking list is empty




NASA's NSSDC Master Catalog

Two Line Element Set (TLE):
1 34122U 93036KT  24109.62063755  .00011367  00000-0  26043-2 0  9998
2 34122  74.0431 188.1885 0101699 240.2243 173.2229 14.52493710798876
Source of the keplerian elements: AFSPC